Location: ?????
(38.3715°N, 23.0573°E)
Time: 04:08:56
(UTC+00:00)

Cosmos 2344 - Pass Details

Date: 03 August 2024
Orbit: 1207 x 3035 km, 63.3° (Epoch: 09 September)

Event Time Altitude Azimuth Distance (km) Brightness Sun altitude
Exits shadow 21:28:12 53° 242° (WSW) 1,502 3.8 -32.3°
Maximum altitude 21:30:00 71° 305° (NW) 1,292 3.6 -32.5°
Drops below altitude 10° 21:37:15 10° 30° (NNE) 3,177 6.1 -32.9°
Sets 21:40:01 0° 33° (NNE) 4,204 6.8 -33.0°
